| time (UTC) | temp F | wind direction | speed knots | gust knots | rain 1hr in | rain 24hr in | rain mn in | humidity % | barometer mb |
| 20260504193443 | 72 | 0 | 1.7 | 0.0 | 0.00 | 0.00 | 0.00 | 83 | 1010.0 |
| 20260504191442 | 72 | 0 | 1.7 | 0.0 | 0.00 | 0.00 | 0.00 | 83 | 1011.0 |
| 20260504185441 | 72 | 0 | 4.3 | 0.0 | 0.00 | 0.00 | 0.00 | 85 | 1010.0 |
| 20260504183440 | 72 | 0 | 4.3 | 0.0 | 0.00 | 0.00 | 0.00 | 85 | 1010.0 |
| 20260504181439 | 73 | 0 | 4.3 | 0.0 | 0.00 | 0.00 | 0.00 | 84 | 1011.0 |
| 20260504175438 | 72 | 0 | 4.3 | 0.0 | 0.00 | 0.00 | 0.00 | 85 | 1011.0 |
| 20260504173437 | 74 | 0 | 4.3 | 0.0 | 0.00 | 0.00 | 0.00 | 84 | 1012.0 |
| 20260504171436 | 71 | 0 | 4.3 | 0.0 | 0.00 | 0.00 | 0.00 | 87 | 1014.0 |
| 20260504081410 | 58 | 200 | 2.6 | 0.0 | 0.00 | 0.00 | 0.00 | 91 | 1015.0 |
| 20260504045400 | 62 | 200 | 2.6 | 0.0 | 0.02 | 0.00 | 0.00 | 91 | 1016.0 |
| 20260504043359 | 62 | 200 | 2.6 | 0.0 | 0.01 | 0.00 | 0.00 | 91 | 1016.0 |
| 20260504041359 | 62 | 200 | 2.6 | 0.0 | 0.00 | 0.00 | 0.00 | 91 | 1017.0 |
| 20260504035357 | 63 | 200 | 2.6 | 0.0 | 0.00 | 0.00 | 0.00 | 91 | 1016.0 |
| 20260504033357 | 63 | 200 | 2.6 | 0.0 | 0.00 | 0.00 | 0.00 | 91 | 1016.0 |
| 20260504031356 | 63 | 200 | 2.6 | 0.0 | 0.00 | 0.00 | 0.00 | 91 | 1016.0 |
| 20260504025354 | 64 | 200 | 2.6 | 0.0 | 0.00 | 0.00 | 0.00 | 91 | 1016.0 |
| 20260504023353 | 64 | 200 | 2.6 | 0.0 | 0.00 | 0.00 | 0.00 | 91 | 1015.0 |
| 20260504021353 | 64 | 200 | 2.6 | 0.0 | 0.00 | 0.00 | 0.00 | 91 | 1015.0 |
| 20260504015351 | 65 | 200 | 2.6 | 0.0 | 0.00 | 0.00 | 0.00 | 90 | 1015.0 |
| 20260504013351 | 65 | 200 | 2.6 | 0.0 | 0.00 | 0.00 | 0.00 | 90 | 1014.0 |
| 20260504011350 | 65 | 200 | 2.6 | 0.0 | 0.00 | 0.00 | 0.00 | 91 | 1014.0 |
| 20260504005349 | 66 | 200 | 2.6 | 0.0 | 0.00 | 0.00 | 0.00 | 91 | 1014.0 |
| 20260504003348 | 66 | 200 | 2.6 | 0.0 | 0.00 | 0.00 | 0.00 | 89 | 1013.0 |
| 20260504001347 | 67 | 200 | 2.6 | 0.0 | 0.00 | 0.00 | 0.00 | 90 | 1012.0 |
| 20260503235346 | 67 | 300 | 2.6 | 0.0 | 0.00 | 0.00 | 0.00 | 91 | 1012.0 |
| 20260503233345 | 67 | 300 | 2.6 | 0.0 | 0.00 | 0.00 | 0.00 | 91 | 1012.0 |
| 20260503231344 | 67 | 300 | 2.6 | 0.0 | 0.00 | 0.00 | 0.00 | 91 | 1011.0 |
| 20260503225343 | 68 | 300 | 2.6 | 0.0 | 0.00 | 0.00 | 0.00 | 91 | 1010.0 |
| 20260503223342 | 68 | 300 | 2.6 | 0.0 | 0.00 | 0.00 | 0.00 | 91 | 1010.0 |
| 20260503221341 | 68 | 300 | 2.6 | 0.0 | 0.00 | 0.00 | 0.00 | 91 | 1011.0 |
| 20260503215340 | 69 | 300 | 2.6 | 0.0 | 0.00 | 0.00 | 0.00 | 91 | 1010.0 |
| 20260503213339 | 69 | 300 | 2.6 | 0.0 | 0.00 | 0.00 | 0.00 | 91 | 1010.0 |
| 20260503211338 | 69 | 300 | 2.6 | 0.0 | 0.00 | 0.00 | 0.00 | 91 | 1010.0 |
| 20260503205337 | 70 | 300 | 2.6 | 0.0 | 0.00 | 0.00 | 0.00 | 91 | 1009.0 |
| 20260503203337 | 70 | 300 | 2.6 | 0.0 | 0.00 | 0.00 | 0.00 | 91 | 1009.0 |
| 20260503201334 | 71 | 300 | 2.6 | 0.0 | 0.00 | 0.00 | 0.00 | 88 | 1010.0 |
| 20260503195333 | 72 | 300 | 2.6 | 0.0 | 0.00 | 0.00 | 0.00 | 89 | 1009.0 |